Lowell, ID

6:02 PM MDT on May 27, 2017 (GMT -0600)
Lowell

Weather History for KP69 - August, 2013

Change the Weather History Date:

Monday, August 26, 2013

  Actual Average Record
Temperature  
Mean Temperature 74 °F -  
Max Temperature 89 °F 83 °F 100 °F (2010)
Min Temperature 59 °F 51 °F 45 °F (2005)
Cooling Degree Days 9    
Growing Degree Days 24 (Base 50)    
Moisture  
Dew Point 57 °F    
Average Humidity 72    
Maximum Humidity 96    
Minimum Humidity 32    
Precipitation  
Precipitation 0.00 in - - ()
Sea Level Pressure  
Sea Level Pressure 29.88 in    
Wind  
Wind Speed 1 mph (NNW)    
Max Wind Speed 5 mph    
Max Gust Speed -    
Averages and records for this station are not official NWS values.
T = Trace of Precipitation, MM = Missing Value Source: NWS Daily Summary

Daily Weather History Graph

Daily Weather History Graph

Search for Another Location

Airport or City:

Trip Planner

Search our weather history database for the weather conditions in past years. The results will help you decide how hot, cold, wet, or windy it might be!

Date:

Astronomy

Aug. 26, 2013 Rise Set
Actual Time 6:55 AM MDT 8:30 PM MDT
Civil Twilight 6:24 AM MDT 9:01 PM MDT
Nautical Twilight 5:46 AM MDT 9:39 PM MDT
Astronomical Twilight 5:05 AM MDT 10:20 PM MDT
Moon 11:21 PM MDT (8/26) 1:23 PM MDT (8/26)
Length of Visible Light 14h 37m
Length of Day
13h 34m
Waning Gibbous, 66% of the Moon is Illuminated
Aug 26
Waning Gibbous
Aug 28
Last Quarter
Sep 5
New
Sep 12
First Quarter
Sep 19
Full

Hourly Weather History & Observations

Time (MDT) Temp. Heat Index Dew Point Humidity Pressure Visibility Wind Dir Wind Speed Gust Speed Precip Events Conditions
12:52 AM 62.1 °F - 60.1 °F 93% 29.90 in - Calm Calm - N/A   Unknown
1:52 AM 61.0 °F - 59.0 °F 93% 29.91 in - Calm Calm - N/A   Unknown
2:52 AM 61.0 °F - 59.0 °F 93% 29.91 in - Calm Calm - N/A   Unknown
3:52 AM 59.0 °F - 57.9 °F 96% 29.90 in - Calm Calm - N/A   Unknown
4:52 AM 59.0 °F - 57.0 °F 93% 29.92 in - Calm Calm - N/A   Unknown
5:52 AM 59.0 °F - 57.0 °F 93% 29.95 in - NNW 3.5 mph - N/A   Unknown
6:52 AM 59.0 °F - 57.0 °F 93% 29.98 in - Calm Calm - N/A   Unknown
7:52 AM 59.0 °F - 55.9 °F 90% 30.00 in - North 3.5 mph - N/A   Unknown
8:52 AM 59.0 °F - 55.9 °F 90% 30.01 in - North 3.5 mph - N/A   Unknown
9:52 AM 63.0 °F - 57.0 °F 81% 30.00 in - Calm Calm - N/A   Unknown
10:52 AM 64.9 °F - 57.0 °F 75% 29.97 in - Calm Calm - N/A   Unknown
11:52 AM 73.0 °F - 55.9 °F 55% 29.92 in - Calm Calm - N/A   Unknown
12:52 PM 77.0 °F - 55.0 °F 47% 29.87 in - North 3.5 mph - N/A   Unknown
1:52 PM 82.0 °F 81.4 °F 55.0 °F 39% 29.83 in - Calm Calm - N/A   Unknown
2:52 PM 87.1 °F 85.1 °F 54.0 °F 32% 29.78 in - Calm Calm - N/A   Unknown
3:52 PM 89.1 °F 88.0 °F 57.9 °F 35% 29.75 in - South 4.6 mph - N/A   Unknown
4:52 PM 84.0 °F 84.5 °F 62.1 °F 47% 29.75 in - Calm Calm - N/A   Unknown
5:52 PM 80.1 °F 80.9 °F 60.1 °F 50% 29.76 in - Calm Calm - N/A   Unknown
6:52 PM 75.0 °F - 60.1 °F 60% 29.77 in - Calm Calm - N/A   Unknown
7:52 PM 71.1 °F - 57.9 °F 63% 29.80 in - Calm Calm - N/A   Unknown
8:52 PM 66.9 °F - 57.9 °F 73% 29.83 in - Calm Calm - N/A   Unknown
9:52 PM 66.0 °F - 55.9 °F 70% 29.85 in - Calm Calm - N/A   Unknown
10:52 PM 63.0 °F - 55.9 °F 78% 29.88 in - Calm Calm - N/A   Unknown
11:52 PM 62.1 °F - 55.9 °F 80% 29.89 in - Calm Calm - N/A   Unknown